Location: Newark
(37.0349°N, 76.3601°W)
Time: 23:53:43
(UTC+00:00)

ISS - Visible Passes

Search period start: 20 January 2020 00:00
Search period end: 30 January 2020 00:00
Orbit: 415 x 421 km, 51.6° (Epoch: 21 January)

Date Brightness Start Highest point End Pass type
(mag) Time Alt. Az. Time Alt. Az. Time Alt. Az.
20 Jan -2.0 00:22:13 10° WSW 00:24:19 32° W 00:24:19 32° W visible
20 Jan -3.9 23:34:08 10° SW 23:37:29 87° SE 23:38:39 38° NE visible
21 Jan -3.2 22:46:19 10° SSW 22:49:33 45° SE 22:52:46 10° ENE visible
22 Jan -1.4 00:23:49 10° W 00:25:52 20° NW 00:25:52 20° NW visible
22 Jan -2.3 23:35:15 10° W 23:38:19 31° NNW 23:40:02 19° NNE visible
23 Jan -3.1 22:46:55 10° WSW 22:50:12 53° NW 22:53:31 10° NE visible
24 Jan -0.8 00:26:22 10° NW 00:27:04 11° NNW 00:27:04 11° NNW visible
24 Jan -1.3 23:37:13 10° WNW 23:39:19 15° NNW 23:41:06 11° N visible
25 Jan -1.7 22:48:24 10° W 22:51:05 22° NNW 22:53:45 10° NNE visible
27 Jan -1.2 22:50:47 10° NW 22:52:07 12° NNW 22:53:26 10° N visible
